EW8665 Weather Reports


time (UTC)temp
F
wind
direction
speed
knots
gust
knots
rain 1hr
in
rain 24hr
in
rain mn
in
humidity
%
barometer
mb
20260507144005 62 70 3.5 7.8 0.00 0.55 0.23 63 1013.9
20260507143505 62 71 2.6 7.8 0.00 0.55 0.23 65 1013.9
20260507143006 62 59 3.5 6.1 0.00 0.55 0.23 65 1013.9
20260507142505 61 57 3.5 9.6 0.00 0.55 0.23 62 1014.0
20260507142005 61 63 4.3 9.6 0.00 0.55 0.23 65 1014.0
20260507141505 61 60 4.3 7.0 0.00 0.55 0.23 65 1013.9
20260507140505 61 53 4.3 7.0 0.00 0.56 0.23 65 1014.0
20260507140006 60 54 4.3 7.0 0.00 0.56 0.23 66 1014.0
20260507135506 60 51 4.3 7.0 0.00 0.56 0.23 67 1013.9
20260507135005 60 50 4.3 7.8 0.00 0.56 0.23 67 1014.0
20260507134506 60 52 4.3 7.8 0.00 0.57 0.23 67 1014.1
20260507134005 60 51 4.3 7.8 0.00 0.57 0.23 66 1014.2
20260507133005 60 41 2.6 5.2 0.00 0.57 0.23 69 1014.0
20260507132505 60 33 3.5 6.1 0.00 0.57 0.23 69 1014.2
20260507132005 59 23 3.5 6.1 0.00 0.57 0.23 70 1014.1
20260507131505 58 18 3.5 6.1 0.00 0.57 0.23 72 1014.1
20260507131005 58 11 3.5 8.7 0.00 0.57 0.23 75 1014.1
20260507130508 58 8 3.5 8.7 0.00 0.58 0.23 76 1014.2
20260507130005 57 13 4.3 8.7 0.00 0.58 0.23 76 1014.3
20260507125505 57 18 5.2 9.6 0.00 0.58 0.23 76 1014.2
20260507125005 57 29 6.1 9.6 0.00 0.59 0.23 76 1014.3
20260507124006 57 47 5.2 8.7 0.00 0.59 0.23 76 1014.1
20260507123005 58 82 6.1 9.6 0.00 0.60 0.23 74 1014.1
20260507122505 59 233 3.5 7.8 0.00 0.61 0.23 71 1014.1
20260507122005 59 283 3.5 9.6 0.00 0.61 0.23 69 1013.9
20260507120504 60 328 2.6 7.0 0.00 0.63 0.23 63 1013.6
20260507120006 60 337 2.6 6.1 0.00 0.68 0.23 61 1013.5
20260507115505 60 333 2.6 6.1 0.00 0.68 0.23 62 1013.7
20260507115005 60 312 3.5 7.0 0.00 0.69 0.23 65 1013.6
20260507114505 59 300 3.5 7.0 0.00 0.69 0.23 66 1013.7
20260507114005 58 301 2.6 6.1 0.00 0.70 0.23 65 1013.8
20260507113505 58 289 1.7 5.2 0.00 0.70 0.23 65 1013.7
20260507113006 58 277 1.7 5.2 0.00 0.70 0.23 65 1013.8
20260507112505 58 268 1.7 4.3 0.00 0.71 0.23 66 1013.8
20260507112005 58 267 2.6 6.1 0.00 0.71 0.23 66 1013.6
20260507111506 58 258 2.6 6.1 0.00 0.71 0.23 65 1013.8
20260507110505 58 251 2.6 6.1 0.00 0.71 0.23 66 1013.9
20260507110005 58 246 2.6 6.1 0.00 0.71 0.23 66 1013.8
20260507105505 58 253 2.6 6.1 0.00 0.71 0.23 68 1013.9
20260507105006 58 252 1.7 4.3 0.00 0.72 0.23 69 1014.1
20260507104505 58 258 1.7 4.3 0.00 0.72 0.23 69 1013.9
20260507104005 57 251 2.6 5.2 0.00 0.72 0.23 70 1014.1
20260507103005 57 247 3.5 8.7 0.00 0.72 0.23 70 1014.1
20260507102505 57 241 4.3 8.7 0.00 0.72 0.23 69 1014.0
20260507102008 58 233 4.3 8.7 0.00 0.72 0.23 68 1014.2
20260507101506 58 212 2.6 6.1 0.00 0.72 0.23 68 1014.3
20260507101005 59 215 2.6 5.2 0.00 0.72 0.23 69 1014.1
20260507100505 59 216 3.5 6.1 0.00 0.72 0.23 72 1014.1
20260507100005 59 207 3.5 8.7 0.00 0.72 0.23 73 1014.2
20260507095006 57 227 2.6 6.1 0.00 0.72 0.23 74 1014.2
20260507094505 57 238 2.6 6.1 0.00 0.72 0.23 76 1014.2
20260507094005 56 243 2.6 6.1 0.00 0.72 0.23 76 1014.2
20260507093505 56 243 2.6 6.1 0.00 0.72 0.23 76 1014.0
20260507093005 55 251 3.5 7.8 0.00 0.72 0.23 76 1014.1
20260507092006 55 251 2.6 7.0 0.00 0.72 0.23 76 1013.8
20260507091505 55 252 2.6 5.2 0.00 0.72 0.23 77 1014.0
20260507091005 55 253 2.6 5.2 0.00 0.72 0.23 77 1013.8
20260507090505 55 248 3.5 5.2 0.00 0.72 0.23 78 1013.8
20260507090006 54 248 3.5 5.2 0.00 0.72 0.23 80 1013.7
20260507085505 54 237 2.6 5.2 0.00 0.72 0.23 78 1013.7
20260507085005 54 237 2.6 5.2 0.00 0.72 0.23 78 1013.6
20260507084505 55 248 1.7 5.2 0.00 0.72 0.23 80 1013.5
20260507084005 54 244 1.7 4.3 0.00 0.72 0.23 84 1013.5
20260507083005 54 246 2.6 5.2 0.00 0.72 0.23 84 1013.6
20260507082505 53 249 3.5 7.0 0.00 0.72 0.23 84 1013.4
20260507082004 53 251 3.5 7.0 0.00 0.72 0.23 85 1013.6
20260507081505 53 243 2.6 6.1 0.00 0.72 0.23 85 1013.5
20260507081005 53 252 2.6 6.1 0.00 0.72 0.23 85 1013.7
20260507080505 53 251 1.7 5.2 0.00 0.72 0.23 86 1013.4
20260507080005 53 257 1.7 6.1 0.00 0.72 0.23 86 1013.4
20260507075505 53 255 2.6 6.1 0.00 0.72 0.23 87 1013.3
20260507075005 53 252 2.6 4.3 0.00 0.72 0.23 88 1013.3
20260507074505 52 249 3.5 4.3 0.00 0.72 0.23 87 1013.4
20260507074005 52 235 2.6 5.2 0.00 0.72 0.23 87 1013.5
20260507073005 52 230 1.7 6.1 0.00 0.72 0.23 87 1013.2
20260507072505 52 236 1.7 2.6 0.00 0.72 0.23 87 1013.3
20260507072008 52 238 1.7 3.5 0.00 0.72 0.23 88 1013.3
20260507071505 52 239 2.6 5.2 0.00 0.72 0.23 89 1013.1
20260507071006 52 245 2.6 6.1 0.00 0.72 0.23 89 1013.1
20260507070505 51 250 2.6 6.1 0.00 0.72 0.23 89 1013.1
20260507065505 51 242 1.7 4.3 0.00 0.72 0.23 90 1013.1
20260507065005 51 238 1.7 4.3 0.00 0.72 0.23 90 1013.1
20260507064505 50 232 2.6 4.3 0.00 0.72 0.23 90 1013.0
20260507063005 50 230 2.6 5.2 0.01 0.72 0.23 91 1013.0
20260507062505 50 231 2.6 7.8 0.01 0.72 0.23 91 1013.0
20260507062005 50 229 3.5 7.8 0.01 0.72 0.23 92 1012.9
20260507061506 50 236 2.6 7.8 0.01 0.72 0.23 93 1012.9
20260507061005 50 230 1.7 5.2 0.01 0.72 0.23 94 1012.9
20260507060505 50 227 1.7 3.5 0.01 0.72 0.23 94 1012.8
20260507060005 50 234 1.7 5.2 0.01 0.72 0.23 94 1012.7
20260507055005 50 221 2.6 5.2 0.01 0.71 0.22 94 1012.7
20260507054005 50 213 0.9 2.6 0.02 0.71 0.22 95 1012.5
20260507053505 50 219 1.7 2.6 0.02 0.71 0.22 95 1012.5
20260507053005 50 221 1.7 4.3 0.02 0.71 0.22 95 1012.4
20260507052005 50 247 0.9 2.6 0.02 0.71 0.22 95 1012.4
20260507051004 49 244 0.9 5.2 0.02 0.70 0.22 94 1012.2
20260507050505 49 241 2.6 8.7 0.02 0.70 0.22 94 1012.2
20260507045505 49 237 1.7 4.3 0.01 0.70 0.21 94 1012.0
20260507045005 49 237 1.7 4.3 0.02 0.70 0.21 94 1012.0
20260507044504 49 236 1.7 4.3 0.02 0.70 0.21 94 1011.9
20260507044005 49 238 2.6 7.0 0.01 0.70 0.21 94 1011.9
20260507043505 49 246 2.6 7.0 0.01 0.69 0.20 94 1011.9
20260507043005 49 239 1.7 6.1 0.01 0.69 0.20 95 1011.7
20260507042005 49 230 1.7 5.2 0.02 0.69 0.20 95 1011.8
20260507041505 49 235 2.6 7.0 0.01 0.69 0.20 95 1011.7
20260507041005 49 231 2.6 7.0 0.02 0.69 0.20 95 1011.8
20260507040505 49 227 1.7 2.6 0.02 0.69 0.20 95 1011.8
20260507040005 49 229 1.7 3.5 0.02 0.69 0.20 95 1011.7
20260507035505 49 239 2.6 3.5 0.02 0.69 0.20 95 1011.8
20260507034505 49 228 1.7 4.3 0.02 0.68 0.20 95 1011.6
20260507034006 49 228 1.7 4.3 0.02 0.68 0.20 95 1011.6
20260507033505 49 232 1.7 3.5 0.02 0.68 0.20 95 1011.6
20260507032505 49 215 1.7 4.3 0.02 0.68 0.19 95 1011.2
20260507032005 50 215 1.7 3.5 0.02 0.68 0.19 95 1011.4
20260507031504 50 216 1.7 3.5 0.03 0.68 0.19 95 1011.4
20260507031005 50 202 1.7 3.5 0.02 0.67 0.18 95 1011.6
20260507030005 50 202 2.6 7.0 0.03 0.66 0.18 96 1011.4
20260507025505 50 210 2.6 4.3 0.03 0.66 0.18 96 1011.4
20260507025004 50 227 2.6 4.3 0.04 0.66 0.18 96 1011.4
20260507024504 50 236 1.7 4.3 0.04 0.66 0.18 96 1011.4
20260507024005 49 248 1.7 3.5 0.04 0.66 0.17 96 1011.4
20260507023505 49 246 1.7 3.5 0.04 0.66 0.17 96 1011.4
20260507023005 49 243 2.6 7.8 0.05 0.66 0.17 96 1011.3
20260507022504 49 235 2.6 7.8 0.05 0.66 0.17 96 1011.1
20260507022005 49 233 1.7 5.2 0.05 0.65 0.17 96 1011.2
20260507021005 49 235 3.5 6.1 0.05 0.65 0.16 96 1011.2
20260507020505 49 242 3.5 7.8 0.05 0.64 0.15 96 1010.9
20260507020005 49 252 3.5 7.8 0.05 0.64 0.15 95 1011.0
20260507015505 49 254 2.6 6.1 0.05 0.63 0.15 95 1011.0
20260507015005 49 257 3.5 7.0 0.05 0.63 0.14 95 1011.2
20260507014505 49 257 3.5 7.8 0.04 0.62 0.13 95 1011.1
20260507014005 49 256 4.3 7.8 0.04 0.62 0.13 95 1011.0
20260507013505 49 253 4.3 7.0 0.04 0.62 0.13 95 1011.1
20260507013005 49 251 3.5 7.0 0.04 0.61 0.13 95 1011.1
20260507012505 49 250 1.7 6.1 0.04 0.61 0.12 95 1010.9
20260507012004 49 248 1.7 4.3 0.03 0.60 0.11 95 1011.1
20260507011505 49 246 2.6 4.3 0.03 0.60 0.11 94 1010.9
20260507011005 49 248 2.6 5.2 0.03 0.60 0.11 94 1011.0
20260507010505 49 258 2.6 5.2 0.03 0.59 0.11 93 1010.7
20260507010004 49 253 2.6 4.3 0.03 0.59 0.10 93 1010.8
20260507005505 49 251 2.6 4.3 0.02 0.59 0.10 93 1011.0
20260507005005 49 243 2.6 5.2 0.02 0.58 0.09 92 1011.0
20260507004505 49 242 2.6 5.2 0.02 0.58 0.09 92 1011.0
20260507004004 49 243 1.7 5.2 0.02 0.58 0.09 92 1010.9
20260507003505 49 229 1.7 5.2 0.02 0.58 0.09 92 1011.1
20260507003005 49 230 2.6 5.2 0.02 0.58 0.09 91 1010.9
20260507002505 49 233 2.6 7.8 0.02 0.57 0.08 91 1011.0
20260507002004 49 234 2.6 7.8 0.02 0.57 0.08 90 1011.0
20260507001505 49 242 2.6 7.8 0.02 0.57 0.08 90 1010.8
20260507000505 49 254 2.6 5.2 0.03 0.57 0.08 90 1011.1
20260507000005 49 250 2.6 5.2 0.03 0.57 0.07 90 1011.1
20260506235505 49 251 2.6 7.0 0.03 0.57 0.07 90 1011.1
20260506235005 49 248 2.6 7.0 0.04 0.57 0.07 90 1011.0
20260506234505 49 243 3.5 12.2 0.04 0.56 0.07 90 1011.1
20260506234005 49 234 4.3 12.2 0.04 0.56 0.07 90 1011.2
20260506233505 49 231 4.3 10.4 0.04 0.56 0.07 90 1011.2
20260506233005 49 232 3.5 7.0 0.04 0.56 0.07 91 1011.0
20260506232505 49 224 2.6 7.8 0.04 0.55 0.06 91 1011.2
20260506232004 49 227 3.5 7.8 0.04 0.55 0.06 91 1011.2
20260506231505 49 227 2.6 7.0 0.05 0.55 0.06 91 1011.2
20260506231005 49 233 1.7 5.2 0.05 0.55 0.06 91 1011.2
20260506230505 49 222 1.7 6.1 0.05 0.54 0.05 91 1011.0
20260506225505 49 227 2.6 7.8 0.04 0.53 0.04 90 1011.0
20260506224505 49 228 1.7 4.3 0.04 0.53 0.04 90 1011.0
20260506224005 50 219 1.7 7.0 0.03 0.52 0.03 90 1011.1
20260506223505 49 221 2.6 7.0 0.03 0.52 0.03 90 1011.0
20260506223006 50 215 3.5 9.6 0.02 0.52 0.02 90 1011.1
20260506222505 50 211 3.5 9.6 0.02 0.51 0.02 90 1011.1
20260506222007 50 209 1.7 4.3 0.02 0.50 0.01 90 1011.0
20260506221505 50 214 1.7 7.0 0.01 0.50 0.01 90 1010.9
20260506221007 50 229 1.7 7.0 0.01 0.50 0.00 89 1010.9
20260506220505 50 235 3.5 7.8 0.00 0.49 0.00 89 1010.8
20260506220008 50 242 3.5 7.8 0.00 0.49 0.00 89 1010.8
20260506215505 50 246 2.6 7.0 0.00 0.49 0.49 89 1010.7
20260506215007 50 247 3.5 5.2 0.00 0.49 0.49 89 1010.7
20260506214505 50 247 3.5 6.1 0.00 0.49 0.49 89 1010.8
20260506214005 50 245 2.6 7.0 0.01 0.49 0.49 89 1010.6
20260506213504 50 240 3.5 7.8 0.01 0.49 0.49 89 1010.6
20260506213004 50 236 3.5 7.8 0.00 0.49 0.49 90 1010.6
20260506212505 50 233 2.6 7.8 0.01 0.49 0.49 90 1010.7
20260506212005 50 231 2.6 7.0 0.01 0.49 0.49 90 1010.7
20260506211504 50 218 1.7 6.1 0.02 0.49 0.49 91 1010.5
20260506210505 50 221 2.6 5.2 0.02 0.49 0.49 91 1010.4
20260506210005 50 215 2.6 5.2 0.03 0.49 0.49 91 1010.5
20260506205004 50 212 4.3 7.0 0.04 0.49 0.49 92 1010.4
20260506204004 50 218 3.5 8.7 0.04 0.48 0.48 93 1010.3
20260506203505 50 218 1.7 6.1 0.05 0.48 0.48 93 1010.4
20260506203005 50 225 1.7 6.1 0.05 0.48 0.48 93 1010.4
20260506202505 50 238 1.7 9.6 0.05 0.48 0.48 93 1010.3
20260506202005 50 233 3.5 9.6 0.06 0.48 0.48 93 1010.3
20260506201505 50 228 2.6 9.6 0.05 0.47 0.47 93 1010.4
20260506201004 51 235 2.6 6.1 0.05 0.47 0.47 92 1010.2
20260506200507 51 233 3.5 8.7 0.05 0.46 0.46 92 1010.2
20260506200005 51 231 4.3 8.7 0.05 0.46 0.46 92 1010.2
20260506195507 51 224 4.3 7.8 0.05 0.46 0.46 92 1010.2
20260506195005 51 231 3.5 7.0 0.04 0.45 0.45 92 1010.0
20260506194505 51 231 2.6 6.1 0.04 0.44 0.44 92 1010.2
20260506194005 51 230 2.6 5.2 0.05 0.44 0.44 92 1010.0
20260506193004 51 240 2.6 6.1 0.04 0.43 0.43 92 1010.1
20260506192505 51 248 2.6 6.1 0.04 0.43 0.43 92 1010.0
20260506191504 51 243 1.7 2.6 0.05 0.42 0.42 92 1009.8
20260506191005 51 248 0.9 2.6 0.05 0.42 0.42 92 1009.8
20260506190505 51 241 1.7 6.1 0.06 0.42 0.42 92 1009.7
20260506190005 51 244 1.7 6.1 0.06 0.41 0.41 92 1009.5
20260506185504 51 241 1.7 4.3 0.06 0.41 0.41 92 1009.6
20260506185005 51 240 2.6 5.2 0.06 0.41 0.41 92 1009.6
20260506184505 51 238 1.7 5.2 0.06 0.40 0.40 92 1009.4
20260506184004 51 240 1.7 3.5 0.06 0.39 0.39 91 1009.5
20260506183504 51 241 2.6 7.8 0.06 0.39 0.39 92 1009.4
20260506183005 51 234 2.6 7.8 0.07 0.39 0.39 92 1009.3
20260506182505 51 228 1.7 3.5 0.07 0.39 0.39 92 1009.2
20260506182004 51 228 1.7 4.3 0.07 0.38 0.38 92 1009.3
20260506180505 51 221 2.6 6.1 0.07 0.36 0.36 92 1009.2
20260506180005 51 219 1.7 3.5 0.07 0.36 0.35 92 1009.2
20260506175505 51 222 1.7 3.5 0.07 0.35 0.35 92 1009.1
20260506175005 51 233 2.6 4.3 0.07 0.35 0.35 92 1009.0
20260506174505 51 233 3.5 4.3 0.07 0.35 0.34 92 1008.8
20260506174004 52 231 1.7 4.3 0.07 0.40 0.33 92 1009.0
20260506173504 52 236 1.7 3.5 0.07 0.39 0.33 91 1008.7
20260506173005 51 236 2.6 4.3 0.07 0.39 0.32 91 1008.6
20260506172005 52 232 3.5 7.0 0.07 0.38 0.31 91 1008.6
20260506171504 52 236 3.5 7.0 0.07 0.37 0.30 91 1008.4
20260506171004 52 239 2.6 7.0 0.07 0.37 0.29 91 1008.3
20260506170505 52 246 1.7 7.0 0.07 0.36 0.29 91 1008.4
20260506170005 52 251 1.7 4.3 0.07 0.35 0.28 91 1008.3
20260506165504 52 254 2.6 7.0 0.07 0.35 0.28 91 1008.1
20260506165004 52 252 2.6 7.0 0.08 0.35 0.28 91 1008.2
20260506164508 52 237 3.5 6.1 0.07 0.34 0.27 90 1008.2
20260506163505 52 231 1.7 6.1 0.07 0.33 0.26 90 1008.2
20260506163004 52 227 0.9 5.2 0.07 0.32 0.25 90 1008.1
20260506162505 52 217 0.9 3.5 0.07 0.32 0.25 90 1008.0
20260506162004 52 227 2.6 6.1 0.07 0.31 0.24 89 1008.1
20260506161504 52 227 1.7 6.1 0.06 0.30 0.23 89 1008.2
20260506161005 52 215 1.7 3.5 0.05 0.29 0.22 89 1008.0
20260506155004 53 223 2.6 7.8 0.02 0.27 0.20 87 1008.1
20260506154504 53 224 2.6 7.8 0.02 0.26 0.19 87 1008.0
20260506154006 53 230 2.6 5.2 0.02 0.26 0.19 86 1008.1
20260506153505 53 230 2.6 7.0 0.02 0.26 0.18 86 1007.8
20260506153004 53 226 2.6 7.0 0.01 0.25 0.18 86 1007.9
20260506152505 53 226 2.6 6.1 0.01 0.25 0.18 86 1007.9
20260506152005 53 225 2.6 6.1 0.00 0.24 0.17 85 1007.8
20260506151504 53 247 2.6 4.3 0.01 0.24 0.17 86 1007.9
20260506151004 53 240 2.6 6.1 0.01 0.24 0.17 85 1007.7
20260506150505 52 237 2.6 6.1 0.01 0.24 0.17 85 1007.9
20260506150005 52 245 1.7 5.2 0.01 0.24 0.17 85 1007.8
20260506145505 52 246 3.5 8.7 0.02 0.24 0.17 85 1007.8